Flag Weather past 2 weeks in Augusta, Georgia, U.S.A.

Now
51 °F

Clear.


Feels Like: 48 °F
Forecast: 33 / 58 °F
Wind: 8 mph from East

Location: Daniel Field

Current Time: Nov 22, 2014 at 12:09:51 AM

Latest Report: Nov 21, 2014 at 10:53 PM


Visibility: 10 mi

Pressure: 30.45 "Hg

Humidity: 36%

Dew point: 25 °F

Location of AugustaLocation

Historic Weather in Augusta — Graph

°F

Augusta temperature yesterday

Maximum temperature yesterday: 66 °F (at 2:53 PM)
Minimum temperature yesterday: 43 °F (at 5:53 AM)
Average temperature yesterday: 55 °F

Past Weeks' High & Low Weather Summary

 TemperatureHumidityPressure
High78 °F (Nov 12, 2:53 PM)100% (Nov 17, 7:53 AM)30.45 "Hg (Nov 17, 7:53 AM)
Low25 °F (Nov 19, 5:53 AM)17% (Nov 19, 3:53 PM)29.70 "Hg (Nov 17, 1:53 PM)
Average51 °F56%30.12 "Hg
* Reported Nov 6 10:53 PM — Nov 21 10:53 PM, Augusta, Weather by CustomWeather, © 2014

Note: Actual official high and low records may vary slightly from our data, if they occured in-between our weather recording intervals... More about our weather records

Advertising

Augusta weather history for previous 24 hours

 ConditionsComfort  
Time TempWeatherWind HumidityBarometerVisibility
10:53 PM
Nov 21
51 °FClear.8 mph36%30.45 "Hg10 mi
9:53 PM52 °FClear.8 mph38%30.44 "Hg10 mi
8:53 PM53 °FClear.7 mph38%30.42 "Hg10 mi
7:53 PM54 °FClear.7 mph38%30.41 "Hg10 mi
6:53 PM57 °FClear.8 mph34%30.40 "Hg10 mi
5:53 PM60 °FClear.5 mph32%30.37 "Hg10 mi
4:53 PM64 °FSunny.3 mph25%30.37 "Hg10 mi
3:53 PM66 °FSunny.No wind23%30.35 "Hg10 mi
2:53 PM66 °FSunny.6 mph24%30.34 "Hg10 mi
1:53 PM65 °FSunny.6 mph25%30.35 "Hg10 mi
12:53 PM64 °FSunny.6 mph28%30.36 "Hg10 mi
11:53 AM62 °FSunny.6 mph31%30.38 "Hg10 mi
10:53 AM60 °FSunny.6 mph31%30.39 "Hg10 mi
9:53 AM55 °FSunny.8 mph39%30.39 "Hg10 mi
8:53 AM50 °FSunny.8 mph52%30.37 "Hg10 mi
7:53 AM45 °FSunny.7 mph63%30.35 "Hg10 mi
6:53 AM43 °FClear.7 mph68%30.32 "Hg10 mi
5:53 AM43 °FClear.5 mph68%30.30 "Hg10 mi
4:53 AM46 °FClear.3 mph61%30.28 "Hg10 mi
3:53 AM48 °FClear.8 mph56%30.26 "Hg10 mi
2:53 AM50 °FClear.6 mph52%30.26 "Hg10 mi
1:53 AM51 °FClear.6 mph50%30.26 "Hg10 mi
12:53 AM52 °FClear.3 mph53%30.26 "Hg10 mi
Weather by CustomWeather, © 2014

See weather overviewHow to use our weather pages